[Iaude] MPEC F110: 2019 FR [a=0.78,e=0.35,i=4.2,H=24.0]

mpec at mpcdb1.cfa.harvard.edu mpec at mpcdb1.cfa.harvard.edu
Wed Mar 27 10:53:16 EDT 2019


M.P.E.C. 2019-F110                               Issued 2019 Mar. 27, 14:50 UT
 
     The Minor Planet Electronic Circulars contain information on unusual
         minor planets and routine data on comets.  They are published
    on behalf of Division F of the International Astronomical Union by the
          Minor Planet Center, Smithsonian Astrophysical Observatory,
                          Cambridge, MA 02138, U.S.A.

             Prepared using the Tamkin Foundation Computer Network

                              MPC at CFA.HARVARD.EDU
            URL https://www.minorplanetcenter.net/    ISSN 1523-6714


                                    2019 FR
 
Observations:
     K19F00R* C2019 03 25.43358 16 35 38.96 +53 17 00.7          19.7 GVEF110G96
     K19F00R  C2019 03 25.43880 16 35 42.31 +53 18 27.8          19.8 GVEF110G96
     K19F00R  C2019 03 25.44402 16 35 45.66 +53 19 55.1          20.0 GVEF110G96
     K19F00R  C2019 03 25.44923 16 35 48.97 +53 21 21.9          19.8 GVEF110G96
     K19F00R  C2019 03 25.48907 16 36 14.52 +53 32 21.4          19.9 GVEF110I52
     K19F00R  C2019 03 25.48963 16 36 14.89 +53 32 30.1          19.6 GVEF110I52
     K19F00R  C2019 03 25.49020 16 36 15.17 +53 32 39.3          19.6 GVEF110I52
     K19F00R  C2019 03 25.49077 16 36 15.59 +53 32 48.4          20.9 GVEF110I52
     K19F00R  C2019 03 25.49444 16 36 17.92 +53 33 49.5          20.9 GVEF110G96
     K19F00R  C2019 03 25.49485 16 36 18.27 +53 33 56.0          20.8 GVEF110G96
     K19F00R  C2019 03 25.49525 16 36 18.47 +53 34 02.3          20.4 GVEF110G96
     K19F00R  C2019 03 25.49566 16 36 18.73 +53 34 09.6          19.6 GVEF110G96
     K19F00R  C2019 03 25.50247 16 36 23.10 +53 36 01.7          19.9 GVEF110I52
     K19F00R  C2019 03 25.50303 16 36 23.46 +53 36 10.2          20.2 GVEF110I52
     K19F00R  C2019 03 25.50360 16 36 23.77 +53 36 19.5          20.4 GVEF110I52
     K19F00R  C2019 03 25.50417 16 36 24.12 +53 36 29.0          20.0 GVEF110I52
     K19F00R KC2019 03 26.12083516 44 45.93 +56 24 36.8          19.6 GVEF110J95
     K19F00R KC2019 03 26.12992816 44 53.15 +56 27 07.7          19.9 GVEF110J95
     K19F00R KC2019 03 26.13653916 44 58.49 +56 28 57.5          19.7 GVEF110J95
     K19F00R KC2019 03 26.14412716 45 04.39 +56 31 04.0          19.7 GVEF110J95
     K19F00R  C2019 03 26.31429216 47 47.35 +57 17 29.5          20.8 GVEF110H01
     K19F00R  C2019 03 26.32176416 47 53.77 +57 19 36.9          20.2 GVEF110H01
     K19F00R  C2019 03 26.32792816 47 59.06 +57 21 22.0          19.7 GVEF110H01
     K19F00R  C2019 03 26.33605916 48 06.02 +57 23 40.7          20.3 GVEF110H01
     K19F00R KC2019 03 26.35774916 48 19.18 +57 29 59.3          20.1 VuEF110H21
     K19F00R KC2019 03 26.36183316 48 22.58 +57 31 07.5          20.2 VuEF110H21
     K19F00R KC2019 03 26.36591716 48 26.02 +57 32 15.6          20.0 VuEF110H21
     K19F00R KC2019 03 26.42187 16 49 14.74 +57 47 42.6          19.4 RqEF110734
     K19F00R KC2019 03 26.43116 16 49 22.41 +57 50 16.6          19.4 RqEF110734
     K19F00R KC2019 03 26.87189 16 56 52.45 +59 47 42.0          19.3 RVEF110K51
     K19F00R KC2019 03 26.87367 16 56 54.37 +59 48 11.9          19.2 RVEF110K51
     K19F00R KC2019 03 26.87545 16 56 56.30 +59 48 41.6          19.5 RVEF110K51
     K19F00R KC2019 03 26.98346616 58 50.87 +60 19 04.8          20.2 GVEF110L01
     K19F00R KC2019 03 26.98506016 58 52.61 +60 19 31.2          20.3 GVEF110L01
     K19F00R KC2019 03 26.98704416 58 54.74 +60 20 04.2          20.2 GVEF110L01
     K19F00R KC2019 03 26.99200816 58 59.77 +60 21 27.5          20.1 GVEF110L01
     K19F00R KC2019 03 26.99596216 59 05.79 +60 22 12.6          19.4 VqEF110I93
     K19F00R KC2019 03 27.00162116 59 11.83 +60 23 47.4          19.6 VqEF110I93
     K19F00R KC2019 03 27.00729116 59 17.79 +60 25 22.4          19.6 VqEF110I93
     K19F00R KC2019 03 27.37530017 06 13.89 +62 05 06.2          20.3 VuEF110H21
     K19F00R KC2019 03 27.37659317 06 15.29 +62 05 26.9          20.2 VuEF110H21
     K19F00R KC2019 03 27.38283717 06 22.13 +62 07 08.6          20.3 VuEF110H21
 
Observer details:
734 Farpoint Observatory, Eskridge.  Observer G. Hug.  0.7-m reflector + CCD.
G96 Mt. Lemmon Survey.  Observer R. A. Kowalski.  Measurers B. M. Africano,
    E. J. Christensen, G. A. Farneth, D. C. Fuls, A. R. Gibbs, A. D. Grauer,
    H. Groeller, R. A. Kowalski, S. M. Larson, G. J. Leonard, T. A. Pruyne,
    R. L. Seaman, F. C. Shelly.  1.5-m reflector + 10K CCD.
H01 Magdalena Ridge Observatory, Socorro.  Observers W. H. Ryan, E. V. Ryan.
    Measurer W. H. Ryan.  2.4-m f/8.9 Ritchey-Chretien + CCD.
H21 Astronomical Research Observatory, Westfield.  Observer R. Holmes.
    Measurers S. Foglia, L. Buzzi, T. Linder, R. Holmes.  0.76-m f/3.0
    astrograph + CCD.
I52 Steward Observatory, Mt. Lemmon Station.  Observer G. J. Leonard.
    Measurers B. M. Africano, E. J. Christensen, G. A. Farneth, D. C. Fuls,
    A. R. Gibbs, A. D. Grauer, H. Groeller, R. A. Kowalski, S. M. Larson,
    G. J. Leonard, T. A. Pruyne, R. L. Seaman, F. C. Shelly.  1.0-m reflector
    + CCD.
I93 St Pardon de Conques.  Observer F. Losse.  0.40-m f/3.7 reflector + CCD.
J95 Great Shefford.  Observer P. Birtwhistle.  0.41-m f/6.3
    Schmidt-Cassegrain + CCD.
K51 Osservatorio del Celado, Castello Tesino.  Observers G. Favero,
    R. Furgoni.  Measurer R. Furgoni.  0.80-m f/4 reflector + CCD.
L01 Visnjan Observatory, Tican.  Observers K. Korlevic, J. Mates,
    F. Valentine.  Measurer K. Korlevic.  1.0-m f/2.9 reflector + CCD.
 
Orbital elements:
2019 FR                                                  Earth MOID = 0.0097 AU
Epoch 2019 Apr. 27.0 TT = JDT 2458600.5                 MPC
M 267.87682              (2000.0)            P               Q
n   1.43276174     Peri.  200.41779     +0.95539103     +0.29195253
a   0.7792678      Node   142.51530     -0.25977730     +0.90257995
e   0.3459494      Incl.    4.20560     -0.14051238     +0.31640664
P   0.69           H   24.0           G   0.15           U   8
Residuals in seconds of arc
190325 G96  0.0   0.1-    190325 I52  0.5-  0.3-    190326 734  0.4-  0.3+
190325 G96  0.1+  0.1-    190325 I52  0.6-  0.2-    190326 K51  0.1-  0.1+
190325 G96  0.2+  0.2+    190326 J95  0.2-  0.8+    190326 K51  0.1-  0.0
190325 G96  0.0   0.3+    190326 J95  0.2-  0.0     190326 K51  0.0   0.3-
190325 I52  0.3+  0.4+    190326 J95  0.6+  0.2-    190326 L01  0.6-  0.1-
190325 I52  0.4+  0.2-    190326 J95  0.5-  0.1+    190326 L01  0.0   0.4-
190325 I52  0.3-  0.3-    190326 H01  0.1-  0.3-    190326 L01  0.5+  0.7-
190325 I52  0.2+  0.6-    190326 H01  0.1-  0.4-    190326 L01  0.5-  0.5-
190325 G96  0.1-  0.1+    190326 H01  0.0   0.4-    190326 I93  0.2+  0.4+
190325 G96  0.7+  0.1-    190326 H01  0.1+  0.1-    190327 I93  0.5+  0.1+
190325 G96  0.2+  0.4-    190326 H21  0.2-  0.0     190327 I93  0.2+  0.1-
190325 G96  0.1+  0.2+    190326 H21  0.1-  0.1-    190327 H21  0.4+  0.3+
190325 I52  0.0   0.4+    190326 H21  0.3+  0.3-    190327 H21  0.2+  0.0
190325 I52  0.0   0.3-    190326 734  0.3+  0.1-    190327 H21  0.3-  0.3+

Ephemeris:
2019 FR                  a,e,i = 0.78, 0.35, 4                   q = 0.5097
Date    TT    R. A. (2000) Decl.     Delta      r     Elong.  Phase     V
2019 02 25    15 03 19.7 -06 07 35   0.1451  1.0489   110.3    62.3    22.1
...
2019 03 12    15 29 45.5 +10 00 03   0.08530 1.0379   119.3    56.6    20.8
...
2019 03 20    15 54 51.9 +30 45 42   0.06063 1.0235   115.9    61.1    20.1
...
2019 03 26    16 42 56.7 +55 51 10   0.05173 1.0088   101.4    75.7    20.2
2019 03 27    16 58 53.6 +60 23 32   0.05146 1.0060    98.0    79.1    20.3
2019 03 28    17 19 54.9 +64 47 15   0.05157 1.0032    94.4    82.7    20.5
...
2019 04 03    22 51 37.2 +76 21 07   0.05952 0.9840    73.1   103.6    21.6
...
2019 04 11    01 51 03.1 +59 46 56   0.08309 0.9532    52.2   123.9    23.6
...
2019 04 26    02 27 23.4 +40 48 21   0.1454  0.8800    27.8   147.8    27.6

A. U. Tomatic                (C) Copyright 2019 MPC           M.P.E.C. 2019-F110



More information about the Iaude mailing list